Regional Weather Roundup
Issued by NWS

Home | Current Version | Previous Version | Graphics & Text | Print | Product List | Glossary On
Versions: 1 2 3 4 5 6 7 8 9 10 11 12 13 14 15 16 17 18 19 20 21 22 23 24 25 26 27 28 29 30 31 32 33 34 35 36 37 38 39 40 41 42 43 44 45 46 47 48 49 50
000
ASUS44 KMEG 110200
RWRTN
TENNESSEE HOURLY STATE WEATHER ROUNDUP
NATIONAL WEATHER SERVICE MEMPHIS TN
800 PM CST SAT DEC 10 2016

TNZ002-004-019-021-049-052-054-088>092-110300-
WEST TENNESSEE

CITY           SKY/WX    TMP DP  RH WIND       PRES   REMARKS
MEMPHIS INTL   PTCLDY    39  15  37 SE5       30.37F
NWS MEMPHIS      N/A     36 N/A N/A MISG        N/A
JACKSON        CLEAR     26  19  74 SE5       30.38F WCI  20
DYERSBURG      CLOUDY    37  16  41 S10       30.35F WCI  30
PARIS          CLEAR     28  14  54 CALM      30.38F
$$

TNZ008-025-027-028-033-062-065-066-110300-
NORTH MIDDLE TENNESSEE

CITY           SKY/WX    TMP DP  RH WIND       PRES   REMARKS
NASHVILLE      PTCLDY    30  17  58 S3        30.43F
CLARKSVILLE    CLEAR     26  15  63 SE6       30.40F WCI  19
SMYRNA         CLEAR     27  20  75 CALM      30.43F
CROSSVILLE     CLEAR     29  15  56 E3        30.37F
$$

TNZ061-075-076-078-094-096-097-110300-
SOUTH MIDDLE TENNESSEE

CITY           SKY/WX    TMP DP  RH WIND       PRES   REMARKS
TULLAHOMA      CLEAR     27  16  63 CALM      30.40F
WINCHESTER     CLEAR     27  19  74 CALM      30.42S
SHELBYVILLE    CLEAR     27  21  80 E3        30.42F
$$

TNZ017-018-042-046-047-110300-
NORTHEAST TENNESSEE

CITY           SKY/WX    TMP DP  RH WIND       PRES   REMARKS
TRI CITIES     PTCLDY    24  16  71 CALM      30.43S
$$

TNZ012-013-036-069-073-074-110300-
CENTRAL EAST TENNESSEE

CITY           SKY/WX    TMP DP  RH WIND       PRES   REMARKS
KNOXVILLE      CLEAR     31  14  49 NE3       30.43R
OAK RIDGE      CLEAR     29  19  66 CALM      30.45S
GATLINBURG     CLEAR     25  14  63 CALM      30.42F
$$

TNZ083-085-099-110300-
SOUTHEAST TENNESSEE

CITY           SKY/WX    TMP DP  RH WIND       PRES   REMARKS
CHATTANOOGA    CLEAR     30  20  66 CALM      30.43F
$$

SKY/WX REPORTED AS FAIR MEANS FEW OR NO CLOUDS BELOW
12 THOUSAND FEET.




USA.gov is the U.S. government's official web portal to all federal, state and local government web resources and services.